If you wish to contribute or participate in the discussions about articles you are invited to join SKYbrary as a registered user

 Actions

Landivisiau Air Base

From SKYbrary Wiki

LFRJ /
Revision as of 20:14, 16 February 2015 by Timo.Kouwenhoven (talk | contribs) (LF Airports CSV import)
(diff) ← Older revision | Latest revision (diff) | Newer revision → (diff)
Airport
ICAO: LFRJ
Summary
Name Landivisiau Air Base
Region Europe
Territory France FR.gif
Location , Bretagne
Serving Landivisiau
Elevation 106.07 m
348 ft
348 ft106.07 m
Type medium airport
Coordinates 48° 31' 48.93" N, 4° 9' 5.91" W
Runways
Designator Length Width Surface ROPS
8/26 2700 m8,858.268 ft
45 m147.638 ft
CON /


METAR
Observation LFRJ 300900Z AUTO 21017KT 9999 BKN017 BKN030 BKN110 15/12 Q1009 BECMG 20015G25KT 2000 RADZ OVC007
Station Landivisiau
Date/Time 30 September 2020 09:00:00
Wind direction 210°
Wind speed 17 kts
Lowest cloud amount broken clouds
Temperature 15°C
Dew point 12°C
Humidity 82%
QNH 1009 hPa
Weather condition n/a